Regional Weather Roundup
Issued by NWS

Home | Current Version | Previous Version | Graphics & Text | Print | Product List | Glossary On
Versions: 1 2 3 4 5 6 7 8 9 10 11 12 13 14 15 16 17 18 19 20 21 22 23 24 25 26 27 28 29 30 31 32 33 34 35 36 37 38 39 40 41 42 43 44 45 46 47 48 49 50
000
ASUS43 KLSX 251907
RWRMO

WEATHER SUMMARY FOR MISSOURI
NATIONAL WEATHER SERVICE SPRINGFIELD MO
100 PM CST TUE NOV 25 2014

NOTE: "FAIR" INDICATES FEW OR NO CLOUDS BELOW 12,000 FEET WITH NO
       SIGNIFICANT WEATHER AND/OR OBSTRUCTIONS TO VISIBILITY.
       CURRENT SKY AND/OR WEATHER CONDITIONS ARE NOT AVAILABLE FOR
       CHILLICOTHE AND FARMINGTON.

MOZ001>031-035>038-043-044-053-054-252000-
...NORTHERN AND WESTERN MISSOURI...

CITY           SKY/WX    TMP DP  RH WIND       PRES   REMARKS
KANSAS CTY INT SUNNY     38  13  35 VRB7      30.15F
KANSAS C DTWN  SUNNY     40   7  25 W7        30.16F
LEE`S SUMMIT   SUNNY     39   6  25 VRB7      30.16F
ST JOSEPH      SUNNY     38  13  35 S8        30.15F
CHILLICOTHE      N/A     37  14  38 VRB5      30.17F
KIRKSVILLE     SUNNY     33  20  58 W8        30.14F WCI  26

$$
MOZ066>068-077>081-088>096-101>105-252000-
...SOUTHWEST MISSOURI...

CITY           SKY/WX    TMP DP  RH WIND       PRES   REMARKS
SPRINGFIELD    SUNNY     41  15  35 VRB6      30.18F
JOPLIN         SUNNY     43  14  31 SW7       30.20F

$$
MOZ032>034-039>042-045>050-055>058-069>072-252000-
...CENTRAL MISSOURI...

CITY           SKY/WX    TMP DP  RH WIND       PRES   REMARKS
COLUMBIA       SUNNY     37  19  48 W9        30.18F
JEFFERSON CITY SUNNY     38  16  40 SW6       30.20F
ROLLA          SUNNY     38  20  48 SW10      30.15F
SEDALIA        SUNNY     38  18  44 SW8       30.18F
WHITEMAN AFB   SUNNY     38  12  33 VRB5      30.16F
WARRENSBURG    SUNNY     39  12  33 SW6       30.17F
OSAGE BEACH    SUNNY     39  16  38 W6        30.18F

$$
MOZ051-052-059>065-252000-
...EAST CENTRAL MISSOURI...

CITY           SKY/WX    TMP DP  RH WIND       PRES   REMARKS
ST LOUIS INTL  MOSUNNY   39  23  52 W6        30.18F
SPIRIT OF STL  SUNNY     37  23  56 W6        30.17F
ST CHARLES     SUNNY     36  22  56 W7        30.18F

$$
MOZ072>076-082>087-097>100-106>115-252000-
...SOUTH CENTRAL AND SOUTHEAST MISSOURI...

CITY           SKY/WX    TMP DP  RH WIND       PRES   REMARKS
CAPE GIRARDEAU SUNNY     41  26  55 CALM      30.17F
FARMINGTON     SUNNY     39  21  48 W8G16     30.16F
POPLAR BLUFF   SUNNY     44  22  41 MISG      30.17F
WEST PLAINS    SUNNY     42  17  36 W8        30.17F

$$


USA.gov is the U.S. government's official web portal to all federal, state and local government web resources and services.